Location: Bédeille
(43.0872°N, 1.1041°E)
Time: 18:07:34
(UTC+00:00)

Envisat - Visible Passes

Search period start: 29 May 2023 00:00
Search period end: 08 June 2023 00:00
Orbit: 763 x 765 km, 98.2° (Epoch: 29 May)

Date Brightness Start Highest point End Pass type
(mag) Time Alt. Az. Time Alt. Az. Time Alt. Az.
29 May 5.8 02:21:18 10° ENE 02:22:43 11° E 02:24:08 10° ESE visible
30 May 4.2 03:20:20 10° NNE 03:25:10 42° E 03:29:57 10° S visible
31 May 5.3 02:44:06 10° NE 02:47:45 20° E 02:51:22 10° SE visible
02 Jun 4.6 03:08:06 10° NNE 03:12:40 33° E 03:17:13 10° SSE visible
03 Jun 5.5 02:32:18 10° NE 02:35:11 15° E 02:38:03 10° SE visible
04 Jun 3.7 03:32:30 10° NNE 03:37:31 56° E 03:42:28 10° S visible
05 Jun 5.0 02:55:57 10° NE 03:00:09 26° E 03:04:20 10° SSE visible
06 Jun 5.7 02:21:03 10° ENE 02:22:36 11° E 02:24:08 10° ESE visible
07 Jun 4.1 03:20:11 10° NNE 03:25:02 43° E 03:29:50 10° S visible
